This demonstration page uses our WeatherBlox Daily Observations layout. Learn more.

Left ArrowRight Arrow

Hourly Observations for July 23, 2018

Temp ( °F °C ) Dew Point ( °F °C ) Humidity (%) Winds ( mph kmh ) Pressure ( in mb ) Visibility ( mi km ) Precip ( " mm )
12:15 am 00:15 Clear 73 22.9 69 20.8 88 88 S 3 6 30.00 1016 10 16 N/A
12:35 am 00:35 Clear 73 22.7 69 20.5 87 87 ESE 3 6 30.00 1016 10 16 N/A
12:55 am 00:55 Clear 73 22.8 69 20.5 87 87 N N/A 30.00 1016 10 16 N/A
1:15 am 01:15 Mostly Cloudy 73 22.8 69 20.6 87 87 N N/A 30.00 1016 10 16 N/A
1:35 am 01:35 Cloudy 73 22.6 70 21 91 91 N N/A 30.00 1016 10 16 0.01 0.25
1:55 am 01:55 Cloudy 73 22.5 70 21 91 91 NE 13 20 30.06 1018 7 11 0.01 0.25
2:15 am 02:15 Cloudy 72 22 67 19.6 86 86 ENE 7 11 30.06 1018 10 16 N/A
2:35 am 02:35 Mostly Cloudy 71 21.5 67 19.7 90 90 E 9 15 30.03 1017 10 16 N/A
2:55 am 02:55 Partly Cloudy 71 21.5 68 19.8 90 90 SSE 9 15 30.00 1016 10 16 N/A
3:15 am 03:15 Clear 70 21.2 68 19.8 92 92 ESE 6 9 30.00 1016 10 16 N/A
3:35 am 03:35 Clear 71 21.4 67 19.7 90 90 ENE 5 7 30.00 1016 10 16 N/A
3:55 am 03:55 Clear 70 21 67 19.7 92 92 N N/A 30.00 1016 10 16 N/A
4:15 am 04:15 Clear 69 20.8 68 19.8 94 94 N N/A 30.06 1018 7 11 N/A
4:35 am 04:35 Clear 69 20.7 67 19.7 94 94 WSW 5 7 30.03 1017 7 11 N/A
4:55 am 04:55 Clear 69 20.6 67 19.7 95 95 W 3 6 30.06 1018 7 11 N/A
5:15 am 05:15 Clear 69 20.7 68 19.9 95 95 WNW 5 7 30.06 1018 7 11 N/A
5:35 am 05:35 Clear 70 20.9 68 20 95 95 WNW 3 6 30.06 1018 7 11 N/A
5:55 am 05:55 Mostly Cloudy with Mist and Fog 70 21 68 20 94 94 NW 3 6 30.06 1018 5 8 N/A
6:15 am 06:15 Cloudy 70 21 68 20 94 94 N N/A 30.06 1018 7 11 N/A
6:35 am 06:35 Cloudy with Mist and Fog 70 21 68 20.1 95 95 N N/A 30.09 1019 5 8 N/A
6:55 am 06:55 Mostly Cloudy with Mist and Fog 70 21 68 20.1 95 95 NNW 5 7 30.09 1019 4 6 N/A
7:15 am 07:15 Cloudy 70 21.2 69 20.3 95 95 N 6 9 30.09 1019 7 11 N/A
7:35 am 07:35 Cloudy 71 21.5 68 20.2 92 92 N 9 15 30.06 1018 10 16 N/A
7:55 am 07:55 Cloudy 71 21.6 67 19.7 89 89 N 7 11 30.06 1018 10 16 N/A
8:15 am 08:15 Cloudy 72 22 67 19.7 87 87 N 6 9 30.09 1019 10 16 N/A
8:35 am 08:35 Cloudy 73 22.5 68 19.9 85 85 N 10 17 30.09 1019 10 16 N/A
8:55 am 08:55 Cloudy 74 23.1 68 20.1 83 83 N 10 17 30.09 1019 10 16 N/A
9:15 am 09:15 Cloudy 74 23.5 69 20.3 82 82 NNE 14 22 30.09 1019 10 16 N/A
9:35 am 09:35 Mostly Cloudy 76 24.3 68 20.1 77 77 NNE 12 19 30.09 1019 10 16 N/A
9:55 am 09:55 Partly Cloudy 76 24.7 67 19.6 73 73 NNE 13 20 30.09 1019 10 16 N/A
10:15 am 10:15 Partly Cloudy 77 25 67 19.4 71 71 NNE 12 19 30.09 1019 10 16 N/A
10:35 am 10:35 Sunny 78 25.5 67 19.3 69 69 NNE 10 17 30.06 1018 10 16 N/A
10:55 am 10:55 Partly Cloudy 79 25.9 65 18.5 64 64 N 15 24 30.06 1018 10 16 N/A
11:15 am 11:15 Sunny 80 26.5 63 17.3 57 57 NNE 12 19 30.06 1018 10 16 N/A
11:35 am 11:35 Sunny 80 26.8 62 16.9 55 55 NNE 9 15 30.06 1018 10 16 N/A
11:55 am 11:55 Sunny 80 26.7 62 16.4 53 53 NNE 10 17 30.06 1018 10 16 N/A
12:15 pm 12:15 Sunny 81 27 61 16 51 51 N 10 17 30.06 1018 10 16 N/A
12:35 pm 12:35 Sunny 82 27.6 60 15.3 47 47 NNE 9 15 30.06 1018 10 16 N/A
12:55 pm 12:55 Sunny 83 28.4 60 15.7 46 46 NNE 10 17 30.06 1018 10 16 N/A
1:15 pm 13:15 Sunny 82 27.9 58 14.5 44 44 N 9 15 30.06 1018 10 16 N/A
1:35 pm 13:35 Sunny 83 28.6 57 14.1 41 41 NE 13 20 30.06 1018 10 16 N/A
1:55 pm 13:55 Sunny 84 28.7 56 13.6 40 40 NE 10 17 30.06 1018 10 16 N/A
2:15 pm 14:15 Sunny 84 28.9 57 14.1 40 40 NNE 9 15 30.03 1017 10 16 N/A
2:35 pm 14:35 Sunny 83 28.2 56 13.4 40 40 NE 10 17 30.06 1018 10 16 N/A
2:55 pm 14:55 Sunny 85 29.3 56 13.3 37 37 NE 10 17 30.03 1017 10 16 N/A
3:15 pm 15:15 Sunny 85 29.4 57 13.7 38 38 NE 10 17 30.03 1017 10 16 N/A
3:35 pm 15:35 Sunny 85 29.5 54 12.4 35 35 NNE 13 20 30.03 1017 10 16 N/A
3:55 pm 15:55 Sunny 85 29.5 55 12.7 36 36 NNE 9 15 30.03 1017 10 16 N/A
4:15 pm 16:15 Sunny 85 29.4 55 12.6 36 36 NE 10 17 30.03 1017 10 16 N/A
4:35 pm 16:35 Sunny 85 29.2 55 12.7 36 36 NE 10 17 30.03 1017 10 16 N/A
4:55 pm 16:55 Sunny 85 29.2 56 13.3 38 38 NNE 9 15 30.03 1017 10 16 N/A
5:15 pm 17:15 Sunny 84 29 55 12.5 36 36 NE 8 13 30.00 1016 10 16 N/A
5:35 pm 17:35 Sunny 83 28.6 55 12.9 38 38 NE 8 13 30.00 1016 10 16 N/A
5:55 pm 17:55 Sunny 82 28 58 14.2 43 43 NE 7 11 30.03 1017 10 16 N/A
6:15 pm 18:15 Sunny 82 27.7 56 13.6 42 42 ENE 8 13 30.03 1017 10 16 N/A
6:35 pm 18:35 Sunny 81 27.2 55 13 42 42 NE 9 15 30.06 1018 10 16 N/A
6:55 pm 18:55 Sunny 78 25.8 58 14.5 50 50 NE 7 11 30.03 1017 10 16 N/A
7:15 pm 19:15 Sunny 79 26.1 60 15.4 52 52 NE 5 7 30.03 1017 10 16 N/A
7:35 pm 19:35 Sunny 78 25.6 61 16.3 57 57 NE 6 9 30.03 1017 10 16 N/A
7:55 pm 19:55 Sunny 77 24.9 61 15.9 57 57 NE 6 9 30.09 1019 10 16 N/A
8:15 pm 20:15 Sunny 75 24 60 15.5 59 59 NE 6 9 30.09 1019 10 16 N/A
8:35 pm 20:35 Sunny 73 22.5 60 15.8 66 66 NNE 5 7 30.09 1019 10 16 N/A
8:55 pm 20:55 Sunny 70 21.3 62 16.8 76 76 NE 5 7 30.12 1020 10 16 N/A
9:15 pm 21:15 Clear 70 20.9 62 16.6 77 77 NE 5 7 30.12 1020 10 16 N/A
9:35 pm 21:35 Hazy 69 20.6 62 16.6 78 78 NE 5 7 30.12 1020 3 5 N/A
9:55 pm 21:55 Clear 67 19.6 60 15.5 77 77 NE 5 7 30.12 1020 10 16 N/A
10:15 pm 22:15 Clear 66 19.1 61 15.9 82 82 N 3 6 30.12 1020 10 16 N/A
10:35 pm 22:35 Clear 66 18.7 61 16.2 85 85 NNE 5 7 30.12 1020 10 16 N/A
10:55 pm 22:55 Clear 64 17.7 59 15.1 85 85 N N/A 30.15 1021 10 16 N/A
11:15 pm 23:15 Clear 65 18.6 60 15.7 83 83 N N/A 30.12 1020 10 16 N/A
11:35 pm 23:35 Clear 65 18.3 60 15.8 85 85 NNE 3 6 30.18 1022 10 16 N/A
11:55 pm 23:55 Clear 66 19 60 15.8 82 82 N N/A 30.15 1021 10 16 N/A

Powered by AerisWeather